MFX437 EGLL-EDDF

Flight info

Callsign MFX437
Flight time N/A
Altitude 33000
Route BPK Q295 MATCH DCT REDFA DCT TACHA DCT NOLRU DCT DIXAT DIXAT1A
Aircraft A321/M-SDE2E3FGHIJ3J4J5M1RWXYZ/LB1D1

Departure

Time 2026-05-05 12:17
Airport London Heathrow Airport (EGLL)

Arrival

Time N/A
Airport Frankfurt Main Airport (EDDF)
Time Latitude Longitude Altitude Speed Heading
2026-05-05 11:50 51.46939 -0.47189 81 ft 0 kts 89°
2026-05-05 12:04 51.46939 -0.47195 81 ft 1 kts 89°
2026-05-05 12:04 51.46938 -0.47231 81 ft 3 kts 90°
2026-05-05 12:04 51.46938 -0.47291 81 ft 5 kts 91°
2026-05-05 12:04 51.46949 -0.47353 81 ft 2 kts 160°
2026-05-05 12:05 51.46967 -0.47353 81 ft 0 kts 180°
2026-05-05 12:06 51.46959 -0.47353 81 ft 2 kts 180°
2026-05-05 12:07 51.46938 -0.47353 81 ft 3 kts 180°
2026-05-05 12:07 51.46911 -0.47353 81 ft 4 kts 180°
2026-05-05 12:07 51.46880 -0.47353 81 ft 3 kts 180°
2026-05-05 12:07 51.46874 -0.47353 81 ft 0 kts 180°
2026-05-05 12:08 51.46860 -0.47353 81 ft 4 kts 180°
2026-05-05 12:08 51.46823 -0.47352 81 ft 6 kts 180°
2026-05-05 12:08 51.46773 -0.47361 80 ft 8 kts 204°
2026-05-05 12:08 51.46746 -0.47441 80 ft 9 kts 264°
2026-05-05 12:09 51.46745 -0.47528 81 ft 8 kts 270°
2026-05-05 12:09 51.46744 -0.47615 81 ft 9 kts 269°
2026-05-05 12:09 51.46744 -0.47704 81 ft 9 kts 270°
2026-05-05 12:09 51.46744 -0.47800 81 ft 10 kts 270°
2026-05-05 12:10 51.46743 -0.47903 81 ft 10 kts 269°
2026-05-05 12:10 51.46743 -0.48004 81 ft 11 kts 270°
2026-05-05 12:10 51.46742 -0.48076 81 ft 4 kts 270°
2026-05-05 12:10 51.46742 -0.48078 81 ft 0 kts 270°
2026-05-05 12:11 51.46742 -0.48080 81 ft 0 kts 270°
2026-05-05 12:12 51.46742 -0.48091 81 ft 1 kts 270°
2026-05-05 12:12 51.46742 -0.48107 81 ft 2 kts 270°
2026-05-05 12:12 51.46742 -0.48132 81 ft 3 kts 270°
2026-05-05 12:12 51.46742 -0.48164 81 ft 2 kts 265°
2026-05-05 12:13 51.46740 -0.48196 81 ft 0 kts 265°
2026-05-05 12:13 51.46737 -0.48207 81 ft 1 kts 236°
2026-05-05 12:13 51.46720 -0.48221 81 ft 3 kts 187°
2026-05-05 12:13 51.46693 -0.48218 80 ft 6 kts 174°
2026-05-05 12:14 51.46654 -0.48215 80 ft 6 kts 179°
2026-05-05 12:14 51.46635 -0.48215 79 ft 4 kts 180°
2026-05-05 12:14 51.46594 -0.48214 79 ft 7 kts 180°
2026-05-05 12:14 51.46529 -0.48214 78 ft 10 kts 180°
2026-05-05 12:15 51.46489 -0.48185 78 ft 7 kts 124°
2026-05-05 12:15 51.46480 -0.48123 78 ft 0 kts 91°
2026-05-05 12:15 51.46480 -0.48122 78 ft 0 kts 91°
2026-05-05 12:15 51.46480 -0.48105 78 ft 10 kts 91°
2026-05-05 12:16 51.46481 -0.47740 81 ft 75 kts 89°
2026-05-05 12:16 51.46484 -0.46854 78 ft 131 kts 89°
2026-05-05 12:16 51.46477 -0.43631 646 ft 184 kts 88°
2026-05-05 12:17 51.46536 -0.41990 1448 ft 177 kts 74°
2026-05-05 12:17 51.47012 -0.40402 2185 ft 173 kts 51°
2026-05-05 12:17 51.47702 -0.39073 2646 ft 186 kts 46°
2026-05-05 12:17 51.48440 -0.37749 3063 ft 201 kts 45°
2026-05-05 12:18 51.49609 -0.35634 3650 ft 224 kts 45°
2026-05-05 12:18 51.50606 -0.33790 4074 ft 246 kts 47°
2026-05-05 12:18 51.51544 -0.32021 4632 ft 258 kts 47°
2026-05-05 12:18 51.52275 -0.30414 5173 ft 266 kts 58°
2026-05-05 12:19 51.52959 -0.27820 5700 ft 276 kts 68°
2026-05-05 12:19 51.53296 -0.26122 5897 ft 279 kts 70°
2026-05-05 12:19 51.53812 -0.23342 5993 ft 278 kts 70°
2026-05-05 12:20 51.54590 -0.19941 5979 ft 274 kts 53°
2026-05-05 12:20 51.55704 -0.18087 5984 ft 267 kts 27°
2026-05-05 12:20 51.56843 -0.17319 6004 ft 270 kts 12°
2026-05-05 12:20 51.58435 -0.17115 6013 ft 272 kts 360°
2026-05-05 12:21 51.59547 -0.17099 6010 ft 272 kts
2026-05-05 12:21 51.60492 -0.16911 6018 ft 271 kts
2026-05-05 12:21 51.61945 -0.16430 6018 ft 263 kts
2026-05-05 12:21 51.63700 -0.15751 6012 ft 261 kts 11°
2026-05-05 12:22 51.65474 -0.14999 6145 ft 267 kts 12°
2026-05-05 12:22 51.67222 -0.14214 6772 ft 266 kts 12°
2026-05-05 12:22 51.69022 -0.13390 7557 ft 271 kts 12°
2026-05-05 12:22 51.70830 -0.12559 8329 ft 276 kts 11°
2026-05-05 12:23 51.72674 -0.11648 9098 ft 285 kts 18°
2026-05-05 12:23 51.74324 -0.09834 9855 ft 302 kts 44°
2026-05-05 12:23 51.75408 -0.06857 10515 ft 319 kts 72°
2026-05-05 12:23 51.75825 -0.03303 10970 ft 336 kts 83°
2026-05-05 12:24 51.76072 0.00587 11383 ft 355 kts 85°
2026-05-05 12:24 51.76315 0.04581 11748 ft 373 kts 84°
2026-05-05 12:24 51.76613 0.08856 12087 ft 392 kts 84°
2026-05-05 12:24 51.76958 0.13340 12395 ft 410 kts 83°
2026-05-05 12:25 51.77319 0.17803 12676 ft 426 kts 83°
2026-05-05 12:25 51.77729 0.22556 12989 ft 441 kts 81°
2026-05-05 12:25 51.78314 0.27494 13561 ft 448 kts 77°
2026-05-05 12:25 51.79051 0.32349 14194 ft 453 kts 75°
2026-05-05 12:26 51.79846 0.37288 14771 ft 459 kts 75°
2026-05-05 12:26 51.80660 0.42307 15328 ft 465 kts 75°
2026-05-05 12:26 51.81465 0.47305 15870 ft 471 kts 75°
2026-05-05 12:26 51.82283 0.52425 16407 ft 476 kts 75°
2026-05-05 12:27 51.83115 0.57670 16936 ft 482 kts 75°
2026-05-05 12:27 51.83937 0.62890 17444 ft 487 kts 75°
2026-05-05 12:27 51.84768 0.68178 17934 ft 492 kts 76°
2026-05-05 12:27 51.85606 0.73544 18410 ft 497 kts 76°
2026-05-05 12:28 51.86446 0.78942 18874 ft 502 kts 76°
2026-05-05 12:28 51.87298 0.84434 19327 ft 507 kts 76°
2026-05-05 12:28 51.88148 0.89937 19767 ft 512 kts 76°
2026-05-05 12:28 51.89018 0.95582 20208 ft 517 kts 76°
2026-05-05 12:29 51.89880 1.01194 20626 ft 521 kts 76°
2026-05-05 12:29 51.90757 1.06929 21039 ft 526 kts 76°